Weather History for Casper, WY

Change the Weather History Date:

Thursday, June 20, 2013

  Actual Average Record
Temperature  
Mean Temperature 67 °F 64 °F  
Max Temperature 83 °F 81 °F 97 °F (1988)
Min Temperature 50 °F 47 °F 37 °F (1973)
Degree Days  
Heating Degree Days 0 3  
Month to date heating degree days 67 113  
Since 1 June heating degree days 67 113  
Since 1 July heating degree days 7266 7557  
Cooling Degree Days 2 2  
Month to date cooling degree days 31 24  
Year to date cooling degree days 41 28  
Since 1 June cooling degree days 31 24  
Growing Degree Days 17 (Base 50)    
Moisture  
Dew Point 18 °F    
Average Humidity 25    
Maximum Humidity 43    
Minimum Humidity 7    
Precipitation  
Precipitation 0.00 in 0.05 in 0.68 in (1947)
Month to date precipitation 0.30 1.14  
Year to date precipitation 6.27 6.35  
Snow  
Snow 0.00 in 0.00 in - ()
Month to date snowfall 0.0 0.1  
Since 1 June snowfall 0.0 0.1  
Since 1 July snowfall 85.7 74.9  
Snow Depth 0.00 in    
Sea Level Pressure  
Sea Level Pressure 29.74 in    
Wind  
Wind Speed 11 mph (SW)    
Max Wind Speed 24 mph    
Max Gust Speed 39 mph    
Visibility 10 miles    
Events      
T = Trace of Precipitation, MM = Missing Value Source: NWS Daily Summary

Daily Weather History Graph

Daily Weather History Graph

Search for Another Location

Airport:

Trip Planner

Search our weather history database for the weather conditions in past years. The results will help you decide how hot, cold, wet, or windy it might be!

Date:

Astronomy

Jun. 20, 2013 Rise Set
Actual Time 5:27 AM MDT 8:48 PM MDT
Civil Twilight 4:51 AM MDT 9:23 PM MDT
Nautical Twilight 4:05 AM MDT 10:09 PM MDT
Astronomical Twilight 3:09 AM MDT 11:06 PM MDT
Moon 5:51 PM MDT (6/20) 2:59 AM MDT (6/20)
Length of Visible Light 16h 31m
Length of Day
15h 21m
Waxing Gibbous, 89% of the Moon is Illuminated
Jun 20
Waxing Gibbous
Jun 23
Full
Jun 29
Last Quarter
Jul 8
New
Jul 15
First Quarter

Hourly Weather History & Observations

Time (MDT) Temp. Dew Point Humidity Pressure Visibility Wind Dir Wind Speed Gust Speed Precip Events Conditions
12:53 AM 59.0 °F 14.0 °F 17% 29.61 in 10.0 mi WSW 8.1 mph - N/A   Clear
1:53 AM 55.0 °F 15.1 °F 21% 29.65 in 10.0 mi West 5.8 mph - N/A   Clear
2:53 AM 54.0 °F 18.0 °F 24% 29.66 in 10.0 mi Calm Calm - N/A   Clear
3:53 AM 55.9 °F 17.1 °F 22% 29.69 in 10.0 mi SSW 5.8 mph - N/A   Clear
4:53 AM 52.0 °F 16.0 °F 24% 29.73 in 10.0 mi Calm Calm - N/A   Clear
5:53 AM 52.0 °F 17.1 °F 25% 29.77 in 10.0 mi NW 9.2 mph - N/A   Clear
6:53 AM 55.9 °F 17.1 °F 22% 29.78 in 10.0 mi WSW 9.2 mph - N/A   Clear
7:53 AM 61.0 °F 19.0 °F 20% 29.78 in 10.0 mi SW 16.1 mph - N/A   Clear
8:53 AM 64.0 °F 15.1 °F 15% 29.79 in 10.0 mi WSW 15.0 mph 20.7 mph N/A   Clear
9:53 AM 69.1 °F 17.1 °F 14% 29.79 in 10.0 mi SW 11.5 mph - N/A   Clear
10:53 AM 72.0 °F 14.0 °F 11% 29.79 in 10.0 mi SSW 15.0 mph 20.7 mph N/A   Clear
11:53 AM 75.0 °F 14.0 °F 10% 29.79 in 10.0 mi SSW 15.0 mph - N/A   Clear
12:53 PM 77.0 °F 14.0 °F 9% 29.77 in 10.0 mi SW 17.3 mph 25.3 mph N/A   Clear
1:53 PM 79.0 °F 16.0 °F 9% 29.76 in 10.0 mi SSW 17.3 mph 39.1 mph N/A   Clear
2:53 PM 81.0 °F 12.9 °F 8% 29.75 in 10.0 mi SSW 16.1 mph 24.2 mph N/A   Clear
3:53 PM 81.0 °F 10.9 °F 7% 29.74 in 10.0 mi South 13.8 mph 28.8 mph N/A   Clear
4:53 PM 81.0 °F 12.0 °F 7% 29.74 in 10.0 mi WSW 12.7 mph 20.7 mph N/A   Clear
5:53 PM 81.0 °F 12.0 °F 7% 29.73 in 10.0 mi WSW 6.9 mph - N/A   Clear
6:53 PM 81.0 °F 10.0 °F 7% 29.70 in 10.0 mi WSW 12.7 mph 24.2 mph N/A   Clear
7:53 PM 78.1 °F 16.0 °F 10% 29.70 in 10.0 mi Calm Calm - N/A   Clear
8:53 PM 75.0 °F 24.1 °F 15% 29.71 in 10.0 mi ESE 10.4 mph - N/A   Clear
9:53 PM 72.0 °F 28.9 °F 20% 29.71 in 10.0 mi East 10.4 mph - N/A   Clear
10:53 PM 66.9 °F 33.1 °F 28% 29.73 in 10.0 mi NNW 18.4 mph 25.3 mph N/A   Clear
11:53 PM 62.1 °F 39.0 °F 43% 29.76 in 10.0 mi North 15.0 mph - N/A   Clear